"Pseudo-MPEC" for I9Ym1Lf

Created 2020 Mar 31 9:07:05 UT using Find_Orb

Click here for an explanation of pseudo-MPECs

 
 Astrometry: 
     I9Ym1Lf !C2020 03 17VWYro?Nc:s=)EOxR3OEEA`Fn:l,AstrometryQk(-aYq-4uZ+$Y[W84
     I9Ym1Lf !C2020 03 17V2H`1H_,c+#w`.BhpDOOpV7^+Kj/+%?qM%\PdBmJCp!]%DLOh!$8W84
     I9Ym1Lf !C2020 03 171;wpAg%lyws$3#redacted;CUpGRclickAH6FFui=S')hereI$yjW84
     I9Ym1Lf !C2020 03 17EYpkXforG?6ZBYimB4)24ON/rENeexplanationX(/$;%os4c:1wW84

Station data:
(W84) Cerro Tololo-DECam  (S30.169597 W70.806420)  Chile. 4.0-m f/2.87
   reflector + CCD.

Orbital elements:  I9Ym1Lf
   Perihelion 2019 Jun 24.567373 +/- 288 TT = 13:37:01 (JD 2458659.067373)
Epoch 2020 Mar 17.0 TT = JDT 2458925.5   Earth MOID: 0.5479   Ma: 0.0134
M 113.32502922 +/- 100              (J2000 ecliptic)          AutoNEOCP
n   0.42534216 +/- 0.239            Peri.   87.55215 +/- 70
a   1.75109789 +/- 0.656            Node   324.49461 +/- 44
e   0.1785769 +/- 0.25              Incl.   15.83003 +/- 36
P   2.32/846.36d           H 19.1   G  0.15   U 11.8  SR
q 1.43839217 +/- 0.886    Q 2.06380362 +/- 31.6
From 4 observations 2020 Mar. 17 (3.7 hr); mean residual 0".05
Residuals in arcseconds: 
200317 W84  .04+  .03+    200317 W84  .03-  .09-    
200317 W84  .05-  .01-    200317 W84  .03+  .06+    

Ephemerides (geocentric):
Date (UTC) HH   RA              Dec         delta   r     elong  mag " sig PA
---- -- -- --  -------------   -----------  ------ ------ -----  --- ---- ---
2020 03 31 09  11 28 45.611   -20 05 58.41  .98392 1.9417 156.6 21.3 7533  13
2020 03 31 10  11 28 42.060   -20 05 48.57  .98407 1.9417 156.5 21.3 7631  13
2020 03 31 11  11 28 38.512   -20 05 38.71  .98421 1.9418 156.5 21.3 7730  13
2020 03 31 12  11 28 34.968   -20 05 28.82  .98436 1.9419 156.5 21.3 7831  13
2020 03 31 13  11 28 31.427   -20 05 18.91  .98451 1.9420 156.5 21.3 7934  13
2020 03 31 14  11 28 27.889   -20 05 08.97  .98466 1.9420 156.4 21.3 8038  13
2020 03 31 15  11 28 24.355   -20 04 59.01  .98482 1.9421 156.4 21.3 8144  13
2020 03 31 16  11 28 20.824   -20 04 49.02  .98497 1.9422 156.4 21.3 8252  13
2020 03 31 17  11 28 17.296   -20 04 39.01  .98512 1.9422 156.4 21.3 8362  13
2020 03 31 18  11 28 13.772   -20 04 28.97  .98527 1.9423 156.3 21.3 8474  13
2020 03 31 19  11 28 10.250   -20 04 18.91  .98542 1.9424 156.3 21.3 8587  13
2020 03 31 20  11 28 06.732   -20 04 08.83  .98558 1.9424 156.3 21.3 8703  13
2020 03 31 21  11 28 03.218   -20 03 58.72  .98573 1.9425 156.3 21.3 8820  13
2020 03 31 22  11 27 59.707   -20 03 48.59  .98588 1.9426 156.2 21.3 8940  13
2020 03 31 23  11 27 56.199   -20 03 38.43  .98604 1.9426 156.2 21.3 9061  13
2020 04 01 00  11 27 52.694   -20 03 28.25  .98619 1.9427 156.2 21.3 9185  13
2020 04 01 01  11 27 49.193   -20 03 18.04  .98635 1.9428 156.1 21.3 9311  13
2020 04 01 02  11 27 45.695   -20 03 07.81  .98650 1.9428 156.1 21.3 9440  13
2020 04 01 03  11 27 42.201   -20 02 57.56  .98666 1.9429 156.1 21.3 9570  14
2020 04 01 04  11 27 38.710   -20 02 47.28  .98681 1.9430 156.1 21.3 9703  14
2020 04 01 05  11 27 35.222   -20 02 36.98  .98697 1.9431 156.0 21.3 9839  14
2020 04 01 06  11 27 31.738   -20 02 26.65  .98713 1.9431 156.0 21.3 9977  14
2020 04 01 07  11 27 28.257   -20 02 16.30  .98728 1.9432 156.0 21.3 169'  14
2020 04 01 08  11 27 24.780   -20 02 05.93  .98744 1.9433 156.0 21.3 171'  14
2020 04 01 09  11 27 21.306   -20 01 55.53  .98760 1.9433 155.9 21.3 173'  14
2020 04 01 10  11 27 17.835   -20 01 45.11  .98776 1.9434 155.9 21.3 176'  14
2020 04 01 11  11 27 14.368   -20 01 34.67  .98792 1.9435 155.9 21.3 178'  14
2020 04 01 12  11 27 10.904   -20 01 24.21  .98807 1.9435 155.9 21.3 181'  14
2020 04 01 13  11 27 07.444   -20 01 13.72  .98823 1.9436 155.8 21.3 184'  14
2020 04 01 14  11 27 03.987   -20 01 03.20  .98839 1.9437 155.8 21.3 186'  14
2020 04 01 15  11 27 00.533   -20 00 52.67  .98855 1.9437 155.8 21.3 189'  14
2020 04 01 16  11 26 57.083   -20 00 42.11  .98872 1.9438 155.7 21.3 192'  14
2020 04 01 17  11 26 53.637   -20 00 31.53  .98888 1.9439 155.7 21.3 195'  14
2020 04 01 18  11 26 50.194   -20 00 20.92  .98904 1.9439 155.7 21.3 197'  15
2020 04 01 19  11 26 46.754   -20 00 10.29  .98920 1.9440 155.7 21.3 200'  15
2020 04 01 20  11 26 43.318   -19 59 59.64  .98936 1.9441 155.6 21.3 203'  15
2020 04 01 21  11 26 39.885   -19 59 48.97  .98952 1.9442 155.6 21.3 206'  15
2020 04 01 22  11 26 36.456   -19 59 38.28  .98969 1.9442 155.6 21.3 210'  15
2020 04 01 23  11 26 33.030   -19 59 27.56  .98985 1.9443 155.6 21.3 213'  15
2020 04 02 00  11 26 29.608   -19 59 16.82  0.9900 1.9444 155.5 21.3 216'  15
2020 04 02 01  11 26 26.190   -19 59 06.05  0.9902 1.9444 155.5 21.3 219'  15
2020 04 02 02  11 26 22.775   -19 58 55.27  0.9903 1.9445 155.5 21.3 223'  15
2020 04 02 03  11 26 19.363   -19 58 44.46  0.9905 1.9446 155.4 21.3 226'  15
2020 04 02 04  11 26 15.955   -19 58 33.63  0.9907 1.9446 155.4 21.3 230'  15
2020 04 02 05  11 26 12.551   -19 58 22.78  0.9908 1.9447 155.4 21.3 233'  15
2020 04 02 06  11 26 09.150   -19 58 11.90  0.9910 1.9448 155.4 21.3 237'  16
2020 04 02 07  11 26 05.752   -19 58 01.01  0.9912 1.9448 155.3 21.3 241'  16
2020 04 02 08  11 26 02.359   -19 57 50.09  0.9913 1.9449 155.3 21.3 244'  16